Theta_e
309 310 312 313 312 311 312 313 314 313 315 314 311 309 310 313 307 304 314 317 314 316 319 323 324 325 326 326 327 330 331 330 330 331 332 334 335 337 337 336 336 335 336 338 342 344 346 347 349 350 351 352 352 349 347 351 358 360 361 361 360 359 359 358 358 359 359 359 361 362 362 363 361 359 358 358 358 358 359 357 355 356 359 357 358 360 361
309 311 311 311 310 310 311 312 314 315 315 314 315 315 317 316 315 317 316 316 316 319 321 323 325 328 327 327 329 330 330 329 330 331 331 332 333 334 335 337 338 337 337 339 340 340 342 344 346 347 347 347 347 347 348 350 354 360 360 358 359 360 360 360 361 361 361 361 362 362 362 361 362 361 359 359 358 358 358 359 359 361 361 361 360 358 360
306 307 307 308 309 310 308 310 312 314 315 314 314 314 315 316 315 316 316 315 314 321 325 326 326 325 325 325 324 325 327 329 329 329 330 331 332 333 335 336 336 337 337 338 338 339 340 341 343 344 345 346 347 347 347 349 351 357 357 356 359 360 359 361 360 359 359 360 360 358 360 360 362 362 360 360 360 361 361 360 361 362 360 359 358 359 358
302 305 305 306 305 307 307 308 309 311 312 312 313 312 313 313 312 314 315 313 313 320 324 325 324 323 321 320 322 324 325 326 326 326 327 329 331 332 333 334 334 334 334 334 334 335 337 339 341 343 345 346 347 347 349 350 353 356 357 356 357 358 360 358 357 356 358 358 355 352 355 357 358 358 360 361 361 361 360 359 362 361 358 359 360 359 359
300 304 304 303 303 302 299 305 308 309 313 314 315 316 317 316 316 314 312 314 319 321 325 322 320 320 319 319 319 321 324 326 326 325 325 326 329 330 330 331 331 332 332 331 332 332 333 334 335 339 342 344 346 348 349 351 354 353 355 357 357 355 353 354 354 355 354 351 347 348 348 346 349 351 354 358 360 359 357 359 359 360 360 359 358 359 359
299 301 303 304 299 292 295 311 313 312 312 314 313 314 316 317 319 315 319 319 321 322 321 319 317 317 317 318 320 321 321 324 324 324 325 326 328 329 329 329 328 329 329 329 329 330 331 333 334 337 339 340 343 347 349 351 352 353 353 353 353 353 350 347 347 348 347 345 344 345 345 345 345 347 349 352 357 359 359 360 359 357 359 359 358 359 358
299 302 302 297 291 294 309 316 318 317 317 317 315 315 317 318 319 319 319 318 318 319 320 319 318 318 319 320 319 320 322 324 324 323 324 324 326 326 326 325 326 327 328 328 329 328 329 331 333 334 334 336 338 343 347 350 354 354 352 349 345 344 343 344 345 345 346 346 345 344 345 347 348 349 351 352 352 354 356 356 356 359 359 357 356 351 348
301 300 298 290 292 305 309 313 317 319 317 316 316 314 316 318 319 320 318 317 318 319 319 319 321 321 321 321 320 320 322 323 325 325 323 324 325 325 325 325 325 326 326 327 327 327 330 331 332 333 333 334 336 338 344 348 350 346 342 341 340 340 339 341 343 343 345 346 347 346 345 346 346 346 348 348 347 348 348 349 350 350 351 352 350 347 347
297 299 298 297 305 305 308 310 313 315 311 308 308 305 312 320 320 320 318 318 318 319 319 320 321 323 324 320 318 320 320 321 323 324 324 325 325 326 326 326 325 327 327 327 328 329 329 329 330 330 333 335 334 333 335 340 343 342 341 339 338 339 339 339 340 341 341 342 343 345 345 344 342 343 343 343 347 349 344 345 345 344 347 346 348 347 346
301 298 296 298 297 295 304 313 311 315 314 313 314 312 309 319 321 322 320 318 318 318 319 320 320 322 319 314 315 318 321 321 323 325 326 325 325 324 325 326 325 325 326 326 326 327 328 328 329 330 332 332 332 330 330 331 334 336 337 336 336 337 337 338 338 339 340 340 339 339 339 338 338 342 344 344 344 347 348 348 345 345 347 346 348 348 348
299 299 295 295 293 297 308 314 310 313 316 314 314 308 303 317 321 322 321 319 320 320 320 320 321 318 313 313 316 317 318 320 323 323 323 325 325 323 323 323 323 324 325 325 325 326 326 326 328 330 331 332 330 328 328 329 330 329 330 334 335 335 335 336 337 337 337 337 338 337 336 336 338 340 343 345 347 348 346 345 342 344 347 344 338 338 338
301 299 296 294 301 300 307 310 310 314 315 314 310 296 298 315 322 322 322 320 320 322 322 321 321 317 314 314 318 319 319 319 321 324 324 325 325 324 324 323 323 324 325 325 324 324 324 326 328 328 328 328 330 329 329 329 327 327 327 329 334 337 337 336 336 337 337 338 337 336 336 337 338 339 342 344 343 343 342 344 346 345 342 338 334 334 335
300 298 298 299 301 308 310 310 312 314 313 310 300 293 305 316 322 323 323 322 322 323 321 322 320 321 320 322 321 322 322 322 322 322 323 323 324 324 323 322 324 322 322 322 321 321 323 326 327 329 327 326 327 328 329 328 326 327 329 331 334 336 338 337 337 336 337 337 337 337 338 337 339 340 340 340 341 341 340 341 340 337 334 333 331 330 330
299 300 297 297 302 308 311 313 312 315 309 299 298 309 313 320 322 324 324 323 324 323 322 323 321 319 320 321 321 321 322 321 321 322 323 323 322 322 324 324 323 321 321 321 321 321 322 323 325 326 327 327 326 327 326 326 327 329 330 332 334 336 337 337 337 338 338 337 336 336 336 335 334 335 338 338 337 336 335 333 332 330 329 329 327 327 327
300 300 297 294 289 305 312 314 312 312 306 307 315 319 321 324 325 324 324 324 324 324 322 322 320 319 319 319 319 320 321 321 321 321 322 323 321 321 321 321 321 320 320 319 319 320 321 322 323 326 326 326 325 325 324 326 328 329 329 330 330 330 330 330 330 330 330 331 332 333 333 333 332 332 335 336 336 335 332 330 329 327 327 327 325 323 323
296 297 295 293 303 311 313 314 308 313 314 316 320 326 321 325 326 325 325 325 325 325 323 320 319 318 318 319 319 319 319 319 320 321 321 322 321 321 320 319 319 320 320 320 319 320 321 323 324 325 328 326 326 325 325 329 330 329 328 326 327 325 325 324 324 324 324 324 325 327 329 332 334 334 334 335 335 334 333 331 329 327 327 328 326 323 321
303 301 304 310 311 312 314 314 314 317 320 321 324 328 326 324 325 327 326 325 325 325 323 320 319 318 319 319 319 319 318 319 318 318 319 320 320 319 319 320 321 320 319 318 317 317 319 322 325 326 327 327 326 325 328 332 331 330 329 328 325 323 322 321 321 320 321 323 323 323 325 327 329 332 335 335 333 333 331 329 329 328 328 327 324 323 321
308 310 310 312 314 316 317 315 317 320 323 325 326 327 325 327 326 326 326 325 324 324 323 319 319 319 319 319 319 319 318 318 318 320 319 319 319 318 319 320 319 319 319 319 318 315 315 318 321 325 325 325 325 327 330 332 332 333 332 330 328 327 324 323 321 320 318 319 320 321 322 324 327 328 330 334 332 332 331 330 332 331 330 328 325 322 321
305 299 312 314 315 315 317 319 320 322 324 326 327 328 328 327 326 325 326 325 324 323 323 321 320 320 320 320 320 321 320 320 319 317 318 318 319 319 318 319 318 316 313 312 314 314 316 318 320 320 323 323 325 328 330 329 331 334 332 330 330 329 328 326 328 328 325 319 318 319 320 321 322 324 326 328 329 329 330 331 331 332 331 329 325 322 320
306 307 312 312 313 315 316 319 322 323 325 326 327 329 328 327 326 326 325 324 322 323 321 321 320 319 319 319 318 318 319 319 318 320 319 319 319 320 321 318 318 315 314 313 313 314 316 318 321 322 322 323 324 326 327 329 332 333 332 330 326 325 324 325 325 325 325 324 320 318 319 320 319 320 322 323 321 322 323 326 329 326 324 322 320 319 317
307 310 311 312 315 317 317 317 319 325 327 327 326 326 325 325 324 324 324 324 322 322 322 322 320 318 319 319 318 316 317 317 317 319 320 321 321 320 318 318 319 318 318 317 319 317 317 319 321 322 323 324 325 326 326 328 333 331 329 328 326 323 323 323 323 326 321 320 319 319 319 319 317 314 314 318 321 319 317 318 320 322 320 321 322 322 321
304 306 310 313 308 308 315 317 319 323 325 328 326 325 324 324 324 324 323 323 323 323 323 322 320 319 320 320 320 316 317 317 319 320 321 321 320 320 321 321 321 321 321 322 321 320 321 323 323 323 323 324 326 325 327 329 330 330 331 329 327 325 326 324 323 323 322 320 322 321 319 319 318 316 308 301 304 317 317 310 303 299 306 319 319 320 318
303 313 316 319 321 319 319 318 320 324 325 327 326 325 324 325 325 325 324 323 323 323 323 323 322 322 321 321 321 318 316 319 321 321 321 320 319 319 321 320 321 323 323 323 323 322 322 324 323 323 323 324 325 325 326 327 328 328 329 330 330 328 329 328 325 325 323 322 322 323 322 321 321 320 318 314 297 297 306 306 299 294 294 296 300 304 320
314 319 318 319 316 314 319 321 322 323 326 329 328 327 327 326 326 327 326 325 323 324 324 325 325 323 322 322 321 318 318 318 320 320 322 321 322 323 323 323 323 324 324 324 323 322 324 324 323 324 322 323 325 324 326 326 327 328 328 327 326 325 327 327 328 328 326 326 325 324 323 323 324 323 321 319 316 300 296 300 297 294 293 293 293 295 296
310 317 320 320 319 318 322 323 323 324 324 328 326 326 327 327 327 328 327 328 327 326 324 324 326 327 324 322 322 321 319 320 322 322 323 323 323 325 323 323 324 324 325 324 325 326 326 326 325 324 323 323 324 324 326 324 323 323 324 325 325 326 328 328 328 327 326 327 326 325 323 323 323 323 322 321 318 317 314 297 295 294 294 294 294 294 295
316 317 319 319 319 319 320 319 319 322 322 324 326 326 328 328 328 329 329 329 328 328 327 327 326 327 327 324 324 323 322 322 324 324 324 325 325 326 326 325 326 326 326 326 326 327 326 326 326 325 325 323 324 324 323 324 323 322 322 322 324 327 328 327 327 325 325 325 325 325 326 326 325 324 324 324 322 321 318 318 317 308 297 294 296 299 294
318 319 317 316 316 316 320 319 318 321 322 323 327 327 328 329 327 327 327 328 328 329 329 329 328 327 326 326 326 327 326 325 326 326 327 326 326 326 327 328 327 327 326 326 327 326 326 327 326 326 325 324 325 325 324 324 324 323 322 322 322 323 326 326 325 324 323 322 321 323 324 325 327 327 326 327 325 323 321 321 319 318 318 319 305 295 308
319 319 320 316 315 316 318 322 323 322 322 323 326 326 325 324 324 324 324 325 325 326 327 327 326 326 325 327 327 325 324 324 322 324 324 324 326 326 327 328 327 326 326 325 326 326 326 326 325 324 324 326 326 327 326 325 325 324 324 323 321 321 323 325 325 324 322 323 322 320 320 322 325 325 326 326 326 326 324 324 323 320 319 319 320 307 297
318 320 322 322 324 325 323 321 322 321 322 324 325 323 323 323 323 324 324 325 325 326 326 327 329 329 326 325 324 322 320 319 319 320 323 326 326 325 327 328 327 325 325 324 323 324 323 321 319 318 320 326 327 327 326 327 326 325 323 322 321 320 321 323 323 324 324 324 324 325 325 322 322 322 324 325 324 324 325 325 324 323 320 320 320 317 314
318 319 319 320 320 320 319 319 319 320 321 322 321 322 324 323 321 322 322 323 324 324 325 326 326 324 323 321 321 320 318 317 317 318 321 325 325 326 327 325 324 324 323 321 321 322 321 320 319 318 320 324 326 327 327 326 325 326 325 324 322 321 322 323 324 324 325 324 324 324 325 322 323 323 321 322 323 323 322 324 324 323 322 320 319 319 318
317 318 319 319 319 320 320 320 321 321 321 321 322 321 322 323 322 320 321 322 324 323 324 324 323 321 320 320 320 321 319 317 318 318 320 323 322 323 325 325 319 318 318 319 322 323 322 321 319 319 324 324 324 327 326 324 323 324 325 324 323 321 319 320 322 323 322 322 323 323 323 322 320 320 321 322 321 321 322 322 322 322 323 322 321 320 318
315 316 317 318 318 319 320 320 320 320 319 320 320 320 321 321 320 320 320 320 322 322 322 322 320 318 318 318 318 319 319 319 319 320 321 322 321 322 325 323 317 320 322 323 323 324 322 320 317 321 324 325 324 324 324 324 324 322 322 322 323 323 321 317 320 321 321 322 322 321 321 321 320 320 320 320 319 320 321 321 321 321 321 321 321 321 319
314 313 314 315 316 317 317 319 319 319 319 319 320 322 322 323 323 321 320 321 321 322 321 319 318 317 317 318 318 318 319 320 321 321 322 323 323 321 322 325 326 325 324 323 322 322 323 320 319 322 325 324 324 324 324 324 324 323 322 323 323 322 321 321 320 320 320 320 320 320 320 320 319 319 318 318 319 319 319 319 319 320 321 321 322 320 318
317 317 317 317 317 316 316 317 320 319 319 320 322 322 322 322 322 320 320 321 321 320 320 318 317 317 317 317 318 318 318 317 316 318 319 322 322 320 319 319 320 321 320 320 321 322 323 322 323 325 325 325 325 324 324 324 323 324 323 323 323 322 321 322 322 321 322 321 321 321 321 321 320 320 319 318 318 319 318 318 318 319 320 320 317 316 307
323 323 323 321 322 322 322 320 320 320 318 318 319 320 321 321 321 319 319 320 320 321 320 318 318 317 317 316 317 316 316 315 316 318 320 321 322 321 319 318 319 320 319 319 320 320 321 321 323 323 323 324 324 323 322 323 322 323 323 322 322 321 322 322 321 321 320 320 320 320 320 320 319 319 319 319 318 318 318 318 318 319 319 317 315 314 312
322 322 321 322 322 322 321 321 321 321 320 320 319 319 319 319 319 318 317 320 322 321 319 318 317 317 317 317 316 316 317 318 319 319 320 321 322 321 319 316 316 315 314 315 319 319 319 320 319 319 321 321 321 321 321 322 322 322 322 322 322 321 322 321 321 321 322 321 320 319 319 319 319 319 319 319 319 318 317 318 319 319 318 316 315 315 314
321 323 322 321 321 321 321 321 321 321 321 321 321 320 319 319 319 320 320 319 319 319 318 317 316 316 316 317 318 317 318 319 318 318 319 320 319 319 317 316 315 314 313 312 316 318 319 320 318 317 319 320 319 319 321 321 323 323 323 322 321 321 320 319 320 320 320 321 319 318 317 317 318 318 319 318 318 318 317 317 318 316 316 315 314 313 312
320 322 322 321 320 321 321 321 321 322 321 321 321 321 320 319 320 319 318 317 317 318 318 317 317 318 317 316 315 315 316 317 318 318 318 318 318 316 315 314 313 314 311 313 317 318 318 318 316 318 320 319 318 318 319 320 319 320 321 319 319 319 318 318 317 317 316 317 318 317 317 316 316 316 316 316 317 316 316 316 316 315 315 313 312 312 312
318 320 321 321 321 321 320 319 319 320 320 319 319 320 321 320 320 319 317 317 317 317 317 317 316 315 314 314 314 315 315 316 317 317 317 317 317 314 313 314 317 318 316 316 317 316 316 317 317 317 317 316 316 317 317 316 317 320 319 318 318 318 317 317 316 316 316 317 317 315 316 314 314 314 315 315 315 315 314 314 314 315 315 313 312 311 311
319 319 319 318 318 319 318 317 317 318 320 321 319 318 318 318 318 318 317 315 315 316 316 315 315 314 314 315 315 314 315 316 317 316 316 315 315 314 313 315 317 317 315 314 315 316 315 314 316 316 316 317 317 317 316 315 315 317 317 317 316 315 315 315 315 314 314 315 314 314 315 314 314 315 314 314 314 313 314 315 315 314 313 312 312 310 310
319 319 319 319 319 318 318 317 317 318 319 319 321 320 319 318 318 317 315 315 315 315 316 316 316 315 316 315 316 315 315 315 315 316 316 315 312 311 309 309 315 315 315 316 317 316 315 315 316 316 316 316 316 314 315 313 314 315 315 314 313 313 312 313 312 312 312 312 313 313 313 313 313 313 313 313 313 313 313 313 313 312 312 311 310 310 308
319 319 319 319 318 319 318 318 317 316 316 318 318 318 318 318 318 317 316 315 314 315 316 317 317 317 317 316 315 314 314 314 314 314 314 313 311 310 308 310 313 314 314 314 315 315 316 316 316 313 314 313 313 312 311 312 313 313 313 313 312 312 311 311 311 311 312 311 311 312 312 312 311 311 311 312 312 311 310 311 311 311 310 310 309 307 306
318 318 318 318 318 318 317 316 316 316 315 315 315 316 316 317 317 315 314 314 314 315 316 316 314 314 314 314 314 313 312 312 312 312 312 311 311 312 314 313 313 314 313 314 315 315 314 314 314 313 310 311 311 311 310 313 312 311 311 312 312 312 311 311 311 310 310 309 309 310 311 310 310 310 309 309 309 310 309 309 308 309 309 309 308 308 308
318 318 318 318 317 317 317 317 316 315 313 312 314 315 315 315 315 314 314 314 315 315 315 315 315 314 314 314 313 311 311 311 311 312 311 311 311 311 310 312 313 313 312 314 314 313 313 313 313 311 310 309 309 309 310 310 310 310 310 310 309 310 309 309 309 309 309 308 308 308 309 309 309 309 308 308 307 307 307 307 307 307 307 307 307 306 306
318 318 318 317 317 316 316 315 315 315 314 312 313 314 314 315 315 316 315 315 315 315 315 314 314 313 313 313 313 313 314 314 314 312 309 308 307 310 311 310 312 313 312 311 313 312 313 312 311 310 310 308 308 307 309 309 309 308 308 309 308 308 308 308 307 307 307 308 307 307 307 307 308 307 307 306 306 306 306 306 307 307 306 306 306 305 305
317 317 317 316 315 316 316 317 316 313 311 311 311 312 314 314 315 315 316 315 314 314 315 315 315 314 314 312 310 309 309 310 311 312 313 312 309 312 312 311 312 311 309 309 312 311 312 311 310 309 308 307 306 307 307 307 307 307 307 306 307 306 306 306 306 306 307 306 306 306 306 306 306 305 306 306 305 305 305 305 305 306 305 306 306 305 305
316 315 315 316 316 315 315 313 312 312 312 311 310 309 311 313 314 314 315 316 315 314 314 314 314 313 313 312 311 310 309 309 309 310 310 310 310 311 310 309 310 309 309 311 311 311 311 310 309 308 307 306 305 307 307 306 306 306 306 306 306 306 305 306 305 305 305 305 305 305 304 304 305 305 304 304 304 304 304 304 304 304 305 304 304 303 303
315 314 314 314 312 312 312 311 311 311 312 312 312 311 311 313 313 313 313 313 312 312 312 312 312 311 312 313 313 312 311 309 306 307 310 310 310 311 311 311 310 309 309 309 309 310 309 309 308 307 307 305 306 307 307 306 305 305 305 305 306 305 304 304 304 304 304 305 304 305 303 303 304 304 303 303 304 303 303 303 302 303 303 303 302 303 303
315 314 313 312 311 311 311 311 312 312 313 312 311 310 311 311 311 311 311 311 310 309 309 309 310 310 311 311 311 310 311 311 310 307 310 310 310 309 309 310 309 309 309 309 309 309 309 308 307 306 305 304 306 306 306 306 306 306 305 304 305 305 305 304 304 304 304 303 303 303 303 302 303 304 303 303 303 303 303 303 303 303 302 303 302 302 302
312 311 310 310 310 311 311 311 311 312 311 311 311 310 311 310 308 308 309 309 308 307 307 307 307 309 310 310 311 311 311 311 311 311 311 310 310 310 309 310 309 307 307 308 308 308 308 308 307 306 305 305 306 306 306 305 306 305 305 305 305 304 304 304 305 304 304 304 303 303 303 303 303 302 303 303 303 303 303 303 303 302 301 302 301 301 301
310 310 310 311 312 313 314 314 313 311 311 311 310 310 310 309 308 308 308 308 307 306 305 305 306 307 307 308 309 309 310 310 311 310 310 310 310 308 308 308 309 308 308 306 306 306 307 308 308 307 305 305 305 306 306 306 306 305 306 305 306 305 305 304 304 304 305 304 304 303 304 303 303 304 303 303 303 303 303 302 302 303 303 302 302 301 301
312 312 311 311 311 311 312 311 311 312 311 310 310 309 309 309 309 308 308 309 307 305 304 304 303 306 308 308 308 308 308 309 310 310 309 309 308 308 308 307 308 308 308 307 306 305 305 305 305 306 306 306 305 305 305 306 306 305 306 306 306 305 305 305 305 305 305 305 304 304 304 304 304 303 304 303 303 303 303 303 303 303 302 302 302 302 302
Wind_Speed
5 7 9 7 6 6 5 6 7 10 10 11 8 4 2 4 2 2 11 9 7 7 6 6 6 8 8 9 7 7 8 7 7 6 7 7 8 8 7 6 5 7 6 4 5 7 7 6 5 4 1 2 3 5 7 6 5 6 4 6 8 9 9 10 10 9 8 8 8 8 8 8 9 9 10 9 9 9 9 9 9 10 10 9 8 8 7
5 6 7 5 7 6 6 7 8 8 9 11 10 10 6 2 2 6 13 9 9 7 5 6 10 9 8 7 7 8 10 9 8 8 9 10 9 10 9 8 7 5 6 5 5 6 8 8 7 5 4 4 3 3 5 6 7 3 4 8 9 10 10 9 8 7 8 7 7 6 6 8 8 9 9 9 9 9 9 9 8 7 7 7 8 9 8
4 5 5 4 2 4 9 6 5 6 7 9 9 9 8 8 9 9 10 10 8 4 3 6 11 9 8 8 9 10 9 10 10 10 10 10 10 9 9 10 9 9 8 7 7 5 5 5 6 6 5 4 5 5 6 7 7 6 7 10 10 11 9 7 7 7 6 6 6 7 7 6 5 6 7 7 7 7 7 7 7 6 7 9 9 7 8
3 2 3 2 1 4 8 6 6 5 2 5 4 5 2 1 6 7 8 8 7 5 3 10 11 11 9 8 9 9 9 9 9 10 10 10 11 11 11 10 9 9 10 10 9 9 8 8 8 7 7 7 7 7 7 7 7 7 9 10 10 10 7 7 7 8 7 7 4 3 2 4 3 4 4 5 6 7 7 8 6 7 8 8 8 8 7
5 3 3 4 2 3 5 3 5 3 3 5 6 5 4 4 3 7 5 5 4 3 6 9 9 9 8 7 7 6 8 9 10 10 10 10 9 10 10 11 11 11 10 9 10 10 8 9 8 9 8 7 7 7 8 8 8 7 7 8 7 6 4 3 5 5 5 7 7 4 0 1 1 2 2 5 6 7 8 7 6 6 6 6 7 6 6
2 1 2 2 3 8 3 4 4 5 2 4 5 6 6 2 2 1 2 6 4 6 6 9 8 7 6 5 6 7 6 6 8 9 9 10 10 11 11 11 11 10 9 8 7 8 8 8 7 6 5 5 5 5 5 5 6 6 6 6 4 4 2 3 1 3 5 2 2 5 5 3 1 3 4 6 5 4 4 5 5 6 5 4 3 3 2
1 1 1 3 7 3 3 5 3 1 2 3 5 7 4 4 4 7 8 7 8 8 8 9 9 8 6 7 8 9 8 7 7 8 9 9 10 10 10 12 12 10 10 10 11 12 11 11 10 10 10 9 6 4 2 4 5 6 6 4 5 4 5 5 4 3 1 0 1 2 5 4 2 5 4 2 2 4 3 2 4 3 2 2 5 7 7
1 2 3 3 1 4 4 1 2 4 2 3 6 6 4 4 5 7 8 8 7 7 8 8 7 8 9 8 9 8 8 8 8 8 7 8 10 11 10 10 10 10 10 10 11 10 8 11 11 11 11 10 9 9 6 5 5 5 7 8 8 8 8 7 7 5 5 4 4 4 4 4 3 5 2 4 3 3 2 2 3 2 2 3 4 3 2
2 1 3 1 2 3 5 4 7 7 3 4 5 1 5 6 5 7 7 7 7 8 8 8 7 5 6 6 7 7 7 7 6 6 7 7 8 9 10 10 10 9 9 10 9 9 10 11 12 13 11 10 9 10 10 6 4 5 7 7 7 8 8 7 7 6 4 5 5 4 3 4 4 1 2 3 3 1 2 0 4 3 4 1 2 2 1
1 3 2 1 3 5 6 6 4 3 4 3 3 2 4 5 7 7 8 8 8 8 8 8 6 3 5 6 4 5 5 4 5 6 6 7 7 8 9 9 10 10 10 10 10 10 11 12 11 9 10 11 10 11 11 11 11 10 9 8 8 9 8 8 7 6 5 6 6 5 6 5 4 3 2 0 1 2 4 4 2 2 5 3 2 1 2
3 3 4 4 5 3 2 8 5 3 2 5 4 3 2 6 10 9 10 10 9 9 9 8 4 3 4 4 3 1 1 3 3 5 6 7 8 9 9 10 10 10 9 9 10 11 12 12 11 10 11 12 11 11 9 10 12 11 10 9 10 10 9 8 7 5 6 6 6 6 5 4 3 3 2 2 2 1 2 3 1 2 1 5 6 7 8
3 4 5 5 4 2 4 1 3 5 4 4 4 3 1 7 10 11 12 11 11 9 6 4 1 2 3 7 5 3 2 2 4 5 6 7 9 9 9 9 9 8 7 10 12 12 12 10 10 11 11 11 12 11 10 9 11 10 9 7 5 5 6 5 6 6 5 6 6 6 5 6 3 2 2 1 2 1 2 2 3 4 7 7 8 7 8
4 4 2 2 3 2 2 2 3 4 5 4 4 3 2 6 9 11 11 11 11 9 6 3 0 2 2 5 8 6 3 4 5 5 5 7 8 9 9 8 8 9 10 10 11 11 8 8 9 9 9 10 10 10 10 11 10 9 6 5 6 6 7 8 7 6 4 4 7 7 5 4 4 5 3 3 3 2 3 5 6 6 8 8 7 7 6
4 3 4 2 3 0 3 2 2 1 3 3 2 2 1 8 9 10 10 11 11 10 8 3 2 4 6 8 7 6 4 4 4 3 5 6 8 8 8 9 8 8 9 10 11 11 9 9 9 9 9 10 9 9 10 11 9 6 5 4 5 8 9 9 9 9 7 6 6 5 5 5 6 6 5 5 6 5 6 8 7 7 8 8 7 5 5
2 1 2 1 3 2 3 8 4 1 4 1 3 5 2 6 9 10 9 9 11 10 7 5 7 8 8 8 7 6 5 4 4 4 5 6 7 7 7 9 8 8 9 10 10 10 9 9 8 8 10 10 9 8 10 8 6 7 6 6 6 7 8 8 8 8 8 8 7 6 5 4 6 7 5 6 6 6 7 8 8 8 7 6 6 5 6
2 4 5 2 1 3 1 4 3 3 2 2 5 5 6 4 7 8 7 6 9 10 9 9 9 9 9 7 8 7 5 5 4 5 5 6 6 6 7 7 7 8 9 9 9 9 8 8 7 7 8 8 8 9 8 5 5 6 7 6 6 8 7 7 7 7 6 6 6 5 5 5 6 7 8 8 7 5 5 7 7 8 6 5 5 6 6
3 1 1 2 1 2 0 2 1 2 0 2 4 4 7 7 5 4 6 8 8 9 10 11 10 9 8 8 8 7 6 5 4 5 5 5 6 6 6 5 5 6 8 9 9 9 8 9 8 8 7 8 9 9 6 4 4 5 6 6 7 7 7 6 6 5 6 6 6 6 6 6 6 6 7 6 6 5 5 5 5 5 5 5 5 5 6
2 1 2 3 1 1 1 2 2 1 3 2 3 6 7 3 5 6 6 8 9 10 12 12 8 8 9 8 7 7 6 6 5 4 4 5 5 5 6 5 6 6 7 8 8 9 9 8 8 8 8 8 9 6 5 5 4 4 5 6 7 7 6 6 5 5 6 6 7 7 7 6 6 5 5 6 6 5 5 5 6 6 6 5 5 5 5
3 2 2 1 1 1 2 2 2 0 1 2 3 3 4 6 5 5 6 8 10 11 11 11 10 9 8 8 6 6 5 5 5 5 5 4 4 5 6 5 4 6 7 8 8 8 8 7 7 7 8 8 7 5 5 5 5 5 5 6 6 6 6 6 6 6 7 5 4 6 6 5 5 5 5 5 5 5 6 5 6 6 6 5 5 4 4
1 2 4 1 2 2 1 0 3 4 4 4 2 3 5 5 5 6 8 9 10 11 10 10 11 11 9 9 8 7 5 5 4 4 4 4 3 3 3 3 4 6 7 7 7 7 7 6 6 7 7 8 8 8 7 6 5 5 6 5 5 5 6 5 5 6 6 8 7 5 6 6 6 6 6 6 6 6 6 5 6 5 5 6 5 4 4
2 1 1 1 1 1 2 2 2 1 4 6 7 7 7 8 9 9 8 8 10 9 10 10 10 11 9 9 9 9 7 6 5 4 4 3 3 3 4 4 5 5 5 6 6 7 6 5 6 6 7 7 8 8 8 7 6 6 6 6 5 6 5 5 5 5 5 5 5 4 4 6 6 6 5 5 5 5 5 4 4 4 5 5 4 3 3
5 7 8 9 7 4 6 6 7 6 3 7 9 8 9 9 10 9 10 8 7 8 10 10 10 10 8 8 8 9 8 7 7 6 4 3 3 3 2 2 3 4 5 4 5 6 4 4 5 6 6 6 7 8 7 7 6 5 5 4 5 5 5 5 5 5 4 5 4 3 4 4 5 6 9 9 7 4 4 6 8 7 5 5 3 3 4
4 5 9 11 0 2 7 9 8 7 6 8 10 9 10 9 9 9 10 10 8 8 8 8 10 9 8 8 7 8 8 7 6 5 6 5 4 3 2 3 3 3 3 3 5 5 4 4 5 5 6 6 6 6 6 7 7 6 5 4 4 4 4 4 4 4 3 4 3 3 3 4 4 5 4 6 10 11 9 7 7 7 9 9 9 8 4
2 4 11 10 3 3 6 9 10 8 6 7 9 8 8 10 10 9 9 10 11 9 7 5 7 10 9 8 8 8 8 7 6 5 4 3 3 3 2 2 2 3 4 4 5 5 3 3 4 5 5 5 5 6 6 5 5 6 6 4 4 3 3 3 3 3 3 3 3 3 3 2 2 3 4 5 5 6 7 7 6 6 7 8 7 8 10
2 3 9 8 3 3 6 9 8 7 6 5 8 8 9 9 8 8 9 7 8 10 9 7 5 6 9 8 7 8 7 6 5 5 5 4 3 2 2 3 3 3 4 4 3 3 3 4 4 4 5 5 4 4 5 5 6 6 5 5 4 4 3 3 3 3 3 2 2 1 2 2 3 2 3 3 4 4 3 4 5 6 6 6 6 7 7
3 5 8 6 4 6 8 8 5 6 6 5 5 6 5 6 8 8 8 8 7 7 8 7 7 5 6 7 6 8 8 7 7 6 5 5 4 4 4 4 4 3 4 4 4 4 5 5 5 4 5 5 3 2 2 3 4 5 5 4 4 3 3 3 2 2 2 2 2 2 1 1 1 1 1 1 2 3 4 4 3 3 4 6 5 6 8
3 10 13 8 5 4 8 11 9 10 9 6 7 8 7 7 7 6 6 5 6 5 7 7 7 7 6 6 8 8 9 8 8 6 6 7 6 5 4 4 4 5 5 4 4 5 5 5 5 5 6 5 4 2 2 2 2 3 4 4 3 4 5 3 2 2 2 2 1 1 0 1 1 1 1 1 2 2 3 3 3 4 4 3 5 7 4
7 9 11 11 9 9 11 3 7 11 9 8 9 10 9 8 8 9 8 7 6 6 6 8 9 9 9 7 9 9 10 10 9 8 8 7 6 5 6 7 6 6 6 6 5 5 5 5 6 7 6 5 5 4 4 2 2 1 2 2 2 2 2 2 1 1 2 2 2 2 1 0 0 0 0 1 2 2 2 3 3 4 4 3 4 4 6
7 9 0 4 2 6 9 8 9 10 9 7 8 9 11 11 9 9 8 7 7 7 7 6 6 9 9 8 8 9 9 9 9 9 7 6 6 5 5 6 7 7 6 6 6 5 5 6 6 6 6 4 4 5 5 5 4 4 3 2 2 2 1 1 1 1 1 1 1 1 1 1 1 1 1 1 1 1 1 2 3 3 4 5 4 4 4
6 4 1 4 9 13 13 10 11 11 10 10 11 11 12 13 10 8 8 8 8 8 8 9 8 8 9 9 9 10 10 10 9 7 7 5 5 4 5 6 6 6 5 5 5 4 5 4 4 5 4 3 4 4 4 5 5 5 4 3 2 2 1 1 1 1 0 0 1 1 1 1 1 1 1 2 2 2 2 1 2 3 5 6 5 4 4
6 4 4 6 9 11 12 12 10 11 11 10 11 11 10 11 11 9 8 7 6 8 8 9 9 10 9 9 7 6 8 8 7 7 6 5 5 5 4 5 5 4 4 4 3 3 3 3 3 3 3 3 4 3 4 4 4 4 3 3 2 0 2 3 2 2 1 1 1 1 1 1 1 2 2 2 2 2 2 2 2 2 3 4 5 4 4
10 7 7 6 8 9 8 9 10 11 10 11 11 12 11 12 12 11 9 8 8 10 9 9 10 10 7 7 7 7 7 6 6 6 5 5 5 4 3 4 6 6 6 4 3 2 2 2 3 3 3 3 4 4 4 4 4 3 3 3 3 3 1 2 3 1 2 1 1 1 1 2 2 2 2 3 3 3 3 3 3 3 3 3 4 3 3
12 8 6 7 7 8 9 9 11 11 12 13 11 11 10 9 10 10 10 9 8 8 9 9 8 8 8 7 7 7 7 6 6 6 6 5 4 4 2 2 4 5 4 3 3 2 1 2 2 2 2 3 4 4 4 4 4 3 3 3 2 2 2 1 2 2 2 2 1 1 2 2 2 2 3 3 3 3 3 4 3 3 3 3 2 2 3
14 12 13 15 14 12 13 12 9 11 10 10 9 9 9 8 9 9 9 9 10 10 9 10 9 9 8 8 7 7 7 7 6 6 7 6 5 5 3 3 3 3 3 3 3 2 1 2 2 2 3 2 3 3 4 4 3 4 4 4 3 3 3 2 1 2 3 3 3 2 3 3 3 3 3 3 3 3 4 4 4 3 2 1 2 2 4
10 9 11 14 12 13 14 14 12 11 12 10 8 7 7 7 8 9 10 10 12 11 9 9 8 8 8 8 8 8 9 9 9 8 7 6 6 5 4 4 4 4 4 3 3 3 3 2 1 1 2 2 3 3 3 3 3 3 3 4 4 3 3 3 3 3 3 3 3 4 4 4 4 3 2 3 3 3 4 4 4 3 2 3 3 3 2
5 4 5 7 7 8 11 12 12 14 12 12 11 11 9 9 9 9 11 10 7 8 9 8 8 8 8 8 8 9 8 6 6 6 6 6 5 5 5 6 6 5 5 4 3 3 2 2 3 3 0 2 2 2 3 3 3 2 3 3 3 2 2 2 3 3 3 3 3 3 3 3 4 4 4 4 4 4 4 4 3 2 2 2 3 3 3
6 7 7 9 8 9 11 9 10 12 11 10 10 9 9 10 11 9 8 7 8 8 9 8 8 9 9 7 6 5 4 4 5 5 5 5 5 5 5 5 4 4 3 2 3 2 2 2 5 4 2 2 3 3 4 6 3 2 2 2 2 2 2 2 2 2 3 3 3 3 3 3 3 3 3 3 3 3 3 2 0 1 1 2 3 3 4
8 7 8 9 9 10 10 9 9 9 9 9 8 10 11 10 8 8 8 8 8 8 8 9 10 7 6 5 5 5 4 4 5 6 6 6 5 5 4 4 3 3 2 1 2 1 2 3 4 3 2 2 2 2 4 6 5 3 2 2 2 2 2 2 2 2 2 2 2 2 2 3 3 2 2 1 1 1 1 2 2 1 2 3 3 4 4
5 3 4 5 7 8 8 7 7 8 10 12 9 7 5 7 8 8 7 7 6 7 8 7 7 8 7 7 6 5 5 5 5 6 6 5 4 4 4 2 1 1 2 2 1 2 1 1 1 1 2 2 2 2 2 4 3 2 2 2 2 2 2 2 2 2 2 2 2 3 3 4 4 4 3 2 1 1 1 2 1 1 1 2 3 2 3
8 8 9 9 8 8 8 9 9 9 8 8 11 10 8 8 8 7 7 7 6 7 8 8 9 8 8 7 7 6 5 5 5 5 5 4 3 3 2 2 3 3 3 3 2 2 2 2 2 2 1 1 1 1 2 3 3 2 2 2 2 2 3 2 2 2 2 2 2 1 2 2 3 3 2 2 1 1 1 0 1 1 2 2 2 3 3
9 8 8 9 9 9 9 9 8 8 7 7 6 8 9 10 9 9 8 8 7 7 8 8 8 7 7 7 6 6 5 4 4 4 4 3 3 3 4 2 2 2 2 1 1 2 2 3 2 2 2 1 2 2 2 2 1 2 2 3 3 3 3 3 3 2 2 2 2 2 2 2 1 1 1 1 1 0 0 0 1 1 2 2 3 3 3
9 9 10 9 9 9 9 8 9 8 6 5 6 8 9 10 10 10 9 8 8 8 7 6 7 7 6 6 6 6 5 4 3 3 2 3 3 3 4 1 3 2 3 3 3 3 3 3 2 2 2 2 3 3 2 2 2 2 2 2 3 3 2 2 2 2 2 2 2 2 2 2 2 2 2 1 1 1 1 0 1 1 1 1 2 3 3
10 11 10 9 9 10 10 10 10 10 9 6 7 7 9 8 8 9 9 9 9 8 7 7 8 8 8 7 7 6 5 4 3 3 3 2 2 2 2 3 2 2 2 2 2 1 1 2 2 3 2 2 3 3 1 2 2 2 2 2 2 1 1 2 2 2 2 2 2 3 2 2 2 2 2 2 2 1 1 1 0 1 1 1 2 2 2
12 10 10 10 10 9 10 10 9 9 9 7 7 8 9 8 8 10 10 10 9 8 9 8 8 8 7 7 7 6 5 4 4 3 3 3 2 2 2 2 2 2 2 2 2 1 2 2 2 5 5 5 5 2 2 2 2 1 1 1 1 1 1 1 2 2 2 2 2 2 3 2 2 2 2 2 1 1 1 1 1 1 1 1 1 1 2
11 10 11 11 12 11 10 10 11 10 9 10 9 8 8 9 8 9 10 10 9 8 8 8 8 7 6 6 4 3 3 2 2 3 4 3 3 2 3 3 2 2 3 2 2 3 3 3 5 6 6 6 4 1 1 1 1 1 1 1 1 2 2 2 2 2 2 2 3 2 2 2 2 2 2 2 2 1 1 0 1 0 1 1 1 2 2
11 9 10 11 12 10 9 10 9 11 12 11 10 8 6 7 8 8 8 9 9 7 7 7 7 6 6 5 5 4 3 2 2 2 1 0 1 2 3 2 2 2 3 3 3 3 3 7 8 7 6 5 3 2 2 1 1 1 1 2 2 2 2 3 3 3 3 3 3 3 3 3 2 3 3 2 3 2 3 2 1 1 1 1 1 1 0
11 10 10 9 8 9 11 10 11 12 13 12 11 8 6 7 7 7 6 7 7 7 6 6 6 5 5 6 6 5 5 4 3 2 1 2 2 3 4 4 5 5 4 3 3 3 4 5 5 6 6 5 2 1 1 1 2 2 2 2 2 3 3 3 3 3 3 3 3 3 3 2 2 2 2 1 1 1 1 1 1 1 0 0 0 1 1
11 11 10 11 11 11 11 12 12 11 12 11 10 9 9 8 8 7 7 7 7 7 6 5 5 5 4 4 4 3 3 4 5 3 2 3 4 4 4 3 4 5 5 5 5 5 6 6 6 5 5 4 2 1 1 1 2 2 2 2 2 3 2 2 2 2 2 2 2 1 1 1 1 1 1 1 1 1 1 1 0 0 1 1 1 2 2
9 11 11 11 12 13 12 11 10 10 8 9 10 9 9 9 8 8 7 7 8 7 7 7 6 6 5 4 4 3 3 2 1 3 5 4 4 4 4 5 7 6 3 3 3 3 5 6 6 5 5 2 1 1 1 1 1 1 2 2 1 2 2 1 1 1 1 1 1 0 0 0 0 0 0 0 0 0 0 1 1 1 1 1 2 2 3
9 10 10 10 11 11 11 10 9 9 9 9 9 9 9 9 9 7 7 8 8 8 7 7 6 6 5 4 3 2 2 2 3 3 5 4 4 4 4 3 4 4 3 3 4 3 5 6 6 5 3 2 2 1 1 1 1 1 1 2 2 2 2 1 1 1 1 1 2 1 1 2 1 1 2 2 1 2 2 2 2 1 0 3 3 3 4
7 7 8 8 8 8 8 8 10 10 10 9 9 9 9 8 9 9 8 9 9 9 8 7 6 6 5 4 4 3 3 3 2 3 4 4 4 4 3 3 4 4 4 3 3 3 3 4 4 4 4 3 2 2 2 2 2 2 2 2 2 3 3 3 3 3 3 3 3 3 3 3 3 4 4 4 4 4 4 4 3 3 4 3 3 4 3
7 6 7 7 7 7 6 6 8 8 9 9 9 9 8 8 9 9 8 10 9 9 9 9 8 6 4 5 4 4 3 4 4 4 4 4 4 4 4 4 4 4 4 4 3 3 3 3 4 4 3 3 3 3 3 3 2 2 2 2 3 3 3 4 4 4 4 4 5 5 5 5 5 5 5 5 5 5 5 5 5 4 5 4 4 4 4
Wind_Direction
117 133 122 111 99 81 75 45 32 37 40 57 64 43 56 319 271 221 161 167 140 118 101 65 65 55 52 44 26 18 41 55 46 28 35 43 49 54 58 61 36 21 31 18 1 349 352 354 356 359 13 154 138 145 218 248 236 217 192 206 205 203 202 208 213 215 217 217 210 206 211 209 212 218 223 225 225 225 222 227 229 230 232 237 241 239 237
116 120 115 128 120 114 79 54 52 46 57 65 67 65 65 63 101 124 144 153 126 127 87 65 62 55 52 43 31 36 43 50 57 53 52 57 57 54 45 45 55 55 45 45 16 359 333 338 336 328 319 303 303 284 263 258 248 205 153 222 220 214 207 202 200 197 202 204 217 209 219 225 223 221 225 227 228 227 229 231 235 236 239 242 245 244 240
70 85 85 74 151 138 88 76 67 66 77 79 76 80 56 78 99 119 135 135 131 108 43 59 67 60 49 34 28 31 34 39 46 49 49 55 57 54 56 50 42 43 43 44 36 20 357 333 321 307 290 274 256 241 241 247 249 232 196 224 220 215 204 174 156 156 161 170 167 187 198 209 219 227 232 231 228 230 233 236 239 237 241 248 250 251 249
161 230 332 353 358 88 95 83 50 30 359 73 73 81 42 129 136 142 141 138 140 159 115 83 71 66 51 33 21 27 31 35 42 44 44 48 52 54 55 54 49 44 40 34 31 25 18 12 352 332 312 297 280 266 261 251 242 230 216 224 227 218 202 173 174 174 175 176 156 179 216 185 169 228 242 234 236 234 237 239 232 239 245 245 252 253 252
195 124 294 329 297 284 246 74 18 9 80 102 110 109 118 75 109 168 180 128 107 126 132 98 77 72 59 40 16 356 19 38 43 39 44 49 51 54 54 52 49 45 42 36 30 25 21 20 17 5 354 335 314 296 276 266 254 239 225 231 236 226 203 180 178 206 188 165 153 147 144 44 64 116 239 266 255 249 250 247 249 244 243 247 248 253 259
128 43 346 334 283 251 262 23 318 255 226 183 144 132 135 111 254 151 49 103 94 96 91 87 84 76 57 54 35 31 21 25 40 41 43 46 48 46 45 47 48 45 43 41 35 31 24 12 0 345 358 354 338 323 303 284 253 240 211 215 218 220 114 85 142 330 1 30 75 141 136 155 218 254 250 250 263 274 268 257 244 239 230 221 221 235 283
119 31 228 236 244 261 37 342 4 166 144 140 130 129 126 132 141 141 130 85 61 68 78 85 93 94 91 60 45 31 27 29 46 49 40 40 45 48 46 46 46 44 41 38 35 29 22 16 14 12 12 2 344 325 264 233 220 210 201 167 116 105 95 100 86 64 16 36 161 78 109 119 242 244 225 255 277 259 267 344 342 322 3 27 49 46 34
106 203 137 226 194 14 303 232 96 54 85 108 137 115 142 154 151 151 129 109 114 106 103 100 100 102 90 71 43 30 36 42 49 55 46 45 49 52 52 54 44 39 35 33 33 31 20 27 26 26 22 19 19 7 334 250 196 154 128 127 133 123 118 121 121 129 145 156 146 154 150 142 179 248 214 92 61 16 61 92 106 341 4 42 86 125 166
228 96 206 332 3 261 206 215 216 197 217 197 241 230 156 172 169 158 141 137 137 127 118 119 117 117 115 79 56 25 14 25 40 62 66 56 55 61 62 62 59 50 44 37 28 26 28 26 29 31 28 28 34 26 23 35 92 113 112 108 113 117 117 122 130 139 148 146 134 128 112 106 97 64 6 61 96 336 291 307 112 177 239 99 49 57 30
276 165 183 234 236 253 207 193 73 173 208 244 249 257 137 185 173 165 148 149 144 134 138 137 127 182 150 94 56 6 351 14 65 68 69 67 62 57 58 59 59 55 49 46 39 36 34 32 25 22 22 32 37 42 35 32 40 44 61 78 90 97 95 102 108 109 117 115 103 89 78 70 67 56 38 164 111 179 210 213 172 322 318 299 305 47 90
168 183 208 198 218 235 15 168 157 142 191 185 193 247 165 166 170 166 165 160 155 150 153 149 163 194 147 134 116 323 343 17 29 67 67 70 69 63 57 56 55 53 50 47 46 43 39 33 26 29 32 32 36 42 34 40 48 41 30 35 57 65 63 63 66 72 84 82 84 88 92 84 58 47 29 48 85 102 59 62 96 231 41 56 51 49 58
196 180 202 223 205 252 35 116 136 163 193 188 225 239 191 158 168 162 165 169 166 166 149 130 178 234 158 165 142 138 119 61 44 49 57 56 59 61 60 57 61 61 55 52 44 39 35 24 24 34 41 42 39 40 38 42 52 45 33 5 4 59 72 63 63 57 36 78 94 99 87 84 89 85 17 62 140 132 92 81 98 52 62 73 66 53 59
154 206 199 333 246 222 243 212 158 181 198 221 229 186 34 145 163 164 165 166 172 159 152 183 10 65 14 92 114 125 123 96 71 60 60 61 58 58 56 52 51 60 56 55 53 47 34 20 25 28 38 42 39 38 40 44 43 38 31 12 35 61 73 85 88 88 77 72 78 74 77 88 92 79 60 47 47 58 111 91 73 62 68 76 75 62 49
178 185 231 256 311 357 119 125 174 154 189 206 180 40 35 154 160 168 168 166 171 173 179 169 73 91 110 109 118 123 111 96 94 69 64 69 71 71 66 58 58 65 63 59 56 50 38 34 32 39 45 44 37 38 43 44 41 43 35 14 36 58 62 60 63 66 63 60 60 63 66 79 75 64 55 66 73 66 61 68 70 76 83 86 87 76 59
76 173 171 96 239 125 197 132 118 166 249 109 82 126 112 164 167 168 173 174 174 173 167 126 124 128 123 124 123 121 121 110 90 72 64 62 61 57 61 64 56 65 67 60 56 50 44 40 31 35 53 52 42 36 41 31 48 57 52 53 53 53 51 51 51 50 42 45 46 48 48 55 77 78 70 72 68 64 71 76 81 82 80 82 82 75 63
182 171 185 201 5 89 184 235 196 160 43 91 158 139 133 150 162 169 165 177 171 173 153 143 143 137 128 123 129 127 117 106 94 83 78 80 80 72 65 66 68 75 76 68 62 52 44 38 37 31 43 56 50 47 33 9 45 69 66 57 61 63 61 60 58 57 62 66 64 61 58 57 67 75 73 71 66 65 74 87 93 92 88 85 78 76 70
227 193 138 67 58 283 335 256 59 340 78 186 168 141 140 155 171 170 167 160 161 168 148 147 147 141 142 137 143 136 127 118 100 89 78 72 74 75 74 67 63 67 71 72 69 57 41 35 32 31 31 49 52 44 19 18 36 61 76 74 71 72 69 67 66 68 63 60 55 50 46 46 51 50 63 66 71 74 83 82 85 84 81 78 75 70 65
235 278 281 316 273 188 150 179 262 243 124 136 170 152 147 170 155 181 163 149 150 150 148 143 146 139 138 137 133 125 124 114 102 104 100 91 90 92 86 71 58 68 76 67 61 59 49 39 39 33 32 40 45 27 20 32 41 52 65 71 70 72 74 69 62 58 59 53 50 48 49 51 54 49 50 64 70 63 74 79 78 82 83 81 76 75 78
188 152 169 221 92 84 123 110 102 94 242 129 156 145 133 142 155 151 132 142 147 148 147 146 139 138 145 135 125 117 120 113 111 109 98 84 72 70 71 59 58 58 60 62 57 54 48 34 35 40 37 37 30 18 26 34 55 54 60 65 66 60 57 60 54 51 51 44 44 41 35 43 52 50 43 49 60 58 63 61 63 61 59 64 67 62 59
203 91 120 66 340 316 327 301 146 146 143 115 88 85 105 119 120 119 127 133 136 143 142 143 141 145 150 142 138 138 135 131 130 124 117 113 100 63 56 57 55 68 62 65 60 53 44 29 32 38 41 37 29 22 21 20 33 53 58 51 60 62 66 67 60 57 59 55 52 44 36 33 29 30 38 46 54 49 52 54 69 65 60 60 55 48 43
93 68 293 222 74 188 200 207 247 170 136 123 109 112 117 122 121 122 128 138 141 150 142 144 143 145 152 150 150 144 141 142 142 139 130 118 100 91 79 50 44 56 60 67 62 59 50 29 33 39 38 36 31 30 23 19 12 38 48 56 60 67 62 61 61 56 63 61 55 56 57 54 53 39 17 20 48 63 37 9 359 57 86 86 76 64 52
182 179 177 170 160 192 196 198 176 171 151 126 121 124 128 134 133 138 134 130 138 139 143 148 149 147 145 143 148 144 147 147 143 143 138 133 123 105 70 65 68 70 65 67 68 67 58 38 38 41 42 39 33 31 26 21 20 38 42 51 57 56 52 56 60 66 65 62 51 53 67 72 78 71 60 56 18 39 76 38 43 24 26 66 40 50 67
209 185 164 184 113 143 164 168 155 150 159 144 138 144 143 144 143 144 140 134 133 138 149 156 151 147 150 149 147 142 146 147 147 146 148 146 144 131 129 120 98 85 85 91 86 75 62 52 48 42 42 34 34 35 32 30 29 34 34 50 52 58 51 52 51 55 67 78 77 64 63 83 87 92 90 64 50 41 50 66 54 55 65 59 45 21 14
342 159 167 175 166 177 154 148 149 156 166 158 138 139 146 151 152 154 150 150 147 147 147 147 151 151 149 152 154 144 141 144 139 140 133 132 128 131 143 102 106 109 106 91 81 77 69 60 52 43 44 37 23 28 30 28 34 42 37 40 44 45 54 70 69 60 62 80 99 104 102 92 100 111 110 106 84 60 59 56 60 62 66 61 53 52 38
150 149 166 157 114 75 114 130 138 146 163 163 148 153 155 153 157 159 150 146 150 148 149 150 138 148 146 148 150 142 143 140 139 134 134 127 120 117 110 94 73 55 45 46 57 71 74 64 65 60 61 47 26 18 17 18 25 38 40 39 42 47 50 49 55 68 72 75 77 91 112 133 136 137 130 131 126 123 108 96 93 86 75 76 74 62 63
118 117 117 97 81 105 114 108 120 153 157 164 134 136 142 150 151 152 146 145 144 150 145 142 141 140 138 135 123 122 123 131 140 139 130 122 118 109 92 77 63 52 53 51 49 49 52 54 52 57 64 59 47 19 13 23 20 27 27 33 34 23 24 38 51 66 68 63 73 84 90 99 155 158 146 114 126 143 143 146 139 119 110 82 78 94 72
115 135 128 117 109 135 169 164 172 172 165 165 158 143 139 131 125 113 105 112 121 136 140 134 127 126 121 124 125 125 122 124 126 121 117 111 102 92 87 86 86 85 82 76 69 56 56 54 54 54 48 36 28 21 359 17 27 35 33 24 29 44 40 34 45 62 51 49 37 39 99 88 99 166 149 182 197 187 187 176 171 156 149 108 67 34 51
159 169 163 159 176 180 195 164 119 147 153 153 146 137 133 126 127 127 124 122 118 110 111 124 127 128 126 133 127 122 124 125 119 119 113 107 107 102 100 104 106 104 94 87 80 74 72 69 68 62 50 29 17 17 19 15 355 24 50 38 29 29 33 36 44 44 45 50 42 36 29 69 217 37 187 219 209 205 200 204 188 163 154 123 104 88 83
182 184 349 8 47 105 106 107 125 129 136 138 140 133 141 141 139 138 137 137 131 126 119 118 128 132 132 134 131 128 126 124 119 115 111 109 109 110 108 103 100 98 94 92 91 90 87 81 74 68 58 34 18 14 12 11 9 13 4 359 2 12 24 56 15 22 68 75 36 21 21 29 13 272 275 269 277 254 197 197 184 176 158 147 144 135 163
178 170 112 115 127 132 132 142 145 146 145 148 146 153 153 144 141 141 139 140 146 136 132 131 131 131 135 136 138 135 136 134 126 125 125 124 125 123 119 115 111 105 104 101 101 101 95 87 79 68 53 33 28 19 10 5 7 5 2 349 327 336 353 3 324 274 233 228 112 182 228 10 350 313 290 284 277 286 275 235 204 172 168 175 185 183 176
152 140 133 134 146 153 152 150 145 147 146 154 153 148 154 149 141 140 144 144 140 132 142 143 140 139 143 141 143 131 126 128 131 134 132 134 143 151 157 152 131 127 126 126 116 102 90 80 62 51 21 357 7 12 9 4 357 351 351 355 344 64 266 276 271 306 315 277 219 240 270 276 316 311 307 294 278 269 255 261 247 239 190 184 197 193 176
133 126 128 145 156 158 137 140 144 150 155 154 152 154 157 152 151 153 151 157 155 147 146 144 144 149 145 136 137 135 132 133 136 136 133 139 152 166 191 169 144 142 139 141 139 131 115 100 67 41 5 352 352 355 357 356 353 345 353 350 343 338 18 301 278 258 296 297 292 290 311 308 314 322 307 302 292 276 267 266 264 254 245 220 211 192 162
129 125 131 145 146 153 153 165 155 157 158 165 167 162 165 162 154 155 160 153 146 150 154 154 149 145 144 145 144 143 140 138 142 147 153 155 158 165 178 147 137 139 138 136 131 125 104 82 60 30 15 3 356 1 358 354 353 343 347 338 333 348 341 356 0 311 278 287 286 328 325 323 322 306 304 301 291 287 279 270 265 254 242 235 206 150 159
164 177 178 174 167 168 170 179 174 159 167 169 168 163 162 160 153 150 149 153 156 160 160 158 153 150 149 152 150 146 144 145 155 168 170 165 160 161 163 153 142 132 128 142 154 145 122 73 29 14 4 357 4 2 2 351 347 336 339 332 334 328 316 306 232 265 275 268 275 293 298 302 295 298 299 289 289 285 284 276 272 268 235 161 113 109 55
182 180 168 175 181 173 165 161 167 165 163 164 162 167 163 156 154 157 155 158 167 172 161 149 148 153 156 157 157 161 166 170 169 168 169 168 164 155 156 152 150 146 142 143 136 110 71 61 46 13 9 22 22 15 1 338 331 328 337 334 334 328 324 308 294 291 292 299 299 295 293 290 293 299 288 282 275 277 267 267 273 258 200 161 148 122 104
182 128 143 162 165 165 161 161 165 165 165 167 169 167 166 166 156 149 166 176 154 142 147 149 151 154 158 162 166 171 176 172 162 161 163 164 154 150 154 158 157 158 154 150 125 91 99 108 60 38 66 45 32 21 353 333 318 322 323 316 307 308 305 310 313 312 320 312 303 308 308 319 305 292 294 283 277 269 274 278 273 253 231 167 146 142 128
198 173 159 162 162 164 169 168 165 165 169 166 159 155 156 162 169 170 158 138 146 156 152 148 150 163 176 175 162 157 155 155 156 160 155 145 147 158 160 155 159 164 165 166 126 101 107 56 31 32 46 43 29 20 2 353 354 348 328 309 306 303 310 312 330 332 349 355 338 327 331 319 318 326 326 317 310 303 281 262 184 90 102 110 113 121 127
190 179 162 157 157 162 165 168 170 164 157 152 156 162 163 163 157 153 154 156 156 156 156 160 164 158 134 124 144 155 152 146 145 142 142 148 157 153 154 168 169 179 212 104 70 44 49 25 26 24 41 42 33 30 21 27 33 14 12 349 348 342 329 324 325 331 316 326 342 334 337 351 348 326 333 330 25 44 26 51 60 76 113 128 134 151 156
152 138 133 142 143 143 133 133 153 162 163 161 160 155 147 141 141 141 144 150 146 147 150 146 130 134 148 149 144 142 143 145 143 143 144 143 153 169 170 165 92 48 66 86 69 66 32 25 41 51 64 61 52 48 28 22 33 49 43 30 15 14 9 9 7 359 359 8 339 334 323 318 315 317 316 328 337 90 58 39 44 127 181 156 150 148 134
167 164 158 151 148 141 141 150 161 166 175 162 152 152 151 144 147 144 138 136 149 158 151 145 149 147 150 149 147 147 145 145 143 143 142 141 146 149 158 130 97 101 101 105 108 109 98 104 94 85 75 60 20 23 48 13 360 48 65 73 75 71 60 41 40 19 31 7 4 331 325 337 340 334 318 304 297 310 288 188 147 134 137 141 147 136 137
171 159 154 153 146 151 148 147 153 155 153 161 155 138 149 149 145 142 150 150 150 156 154 155 147 139 145 151 146 136 131 130 133 133 127 136 167 188 225 200 97 99 107 100 87 110 105 92 87 104 86 70 65 21 48 51 16 75 58 51 47 53 49 41 29 19 15 4 4 355 3 354 6 1 38 15 8 327 271 228 158 165 177 163 151 148 140
166 155 153 148 148 149 144 136 129 128 127 130 135 139 144 147 150 150 142 134 139 145 143 142 131 135 135 125 123 126 128 122 116 120 149 186 208 207 229 147 86 74 70 94 109 112 109 106 91 77 80 84 87 61 9 70 74 74 75 65 44 37 32 22 12 12 355 343 343 334 342 343 7 22 46 58 81 75 74 75 106 113 114 125 142 147 148
157 158 158 154 149 144 140 144 147 139 131 131 142 138 136 133 116 116 126 132 136 135 127 126 118 114 126 134 139 146 142 136 138 141 140 89 43 18 6 85 104 94 100 102 113 123 120 108 124 111 84 72 79 79 78 64 63 56 50 39 25 5 23 28 20 15 10 19 17 16 12 18 16 25 16 13 16 33 50 87 137 119 135 164 151 154 153
164 161 154 149 149 147 140 136 129 129 128 133 137 135 133 131 137 136 137 137 134 134 133 133 135 138 143 148 152 154 156 161 163 166 170 142 127 111 109 116 126 113 135 144 140 158 132 129 109 109 113 98 86 46 59 68 62 55 43 26 25 21 38 43 48 25 31 33 26 36 38 28 31 48 41 51 52 67 76 61 75 118 137 147 160 151 145
164 158 158 152 145 142 143 144 151 149 133 129 130 132 135 135 135 135 134 134 134 133 133 137 143 145 148 153 149 136 130 133 150 160 193 188 196 161 147 176 159 163 134 150 143 136 129 123 117 124 113 105 98 78 69 61 58 55 52 45 46 35 44 41 42 47 43 43 51 48 52 50 54 50 54 54 30 21 58 72 75 85 164 168 156 173 168
156 152 144 139 148 155 152 136 116 115 123 124 119 119 129 136 135 132 130 129 132 135 137 136 137 133 127 108 92 88 88 86 75 40 36 357 200 120 122 154 153 127 133 171 141 143 126 113 114 116 116 115 104 100 70 66 45 78 66 62 58 63 57 61 64 60 56 53 54 51 52 54 49 43 31 29 43 27 44 25 2 14 353 344 332 349 303
147 146 149 143 128 121 119 121 128 129 129 129 132 139 145 138 132 126 117 115 114 114 110 106 105 106 118 130 139 146 150 136 121 132 145 130 123 125 130 134 128 140 168 176 167 162 132 134 121 114 108 102 82 68 79 81 69 63 63 57 64 65 71 70 63 69 69 66 60 55 52 35 39 52 63 62 68 38 62 68 14 30 43 1 286 191 239
147 146 144 138 135 133 128 132 137 144 148 147 142 136 140 134 121 112 114 112 107 104 107 111 115 121 131 140 144 149 162 168 160 148 160 149 151 150 160 165 140 135 132 125 123 122 124 123 119 116 115 121 131 115 103 80 85 72 67 77 81 86 84 85 91 77 76 81 87 67 63 65 39 23 25 356 13 3 13 333 300 297 283 270 269 278 275
138 135 135 132 135 141 143 145 144 145 139 124 122 128 134 125 116 116 118 115 119 124 130 132 134 137 138 135 134 124 100 53 18 139 151 153 147 147 138 136 146 147 161 170 166 161 146 138 131 135 133 149 139 119 146 128 119 131 132 118 130 116 106 110 93 90 79 82 73 54 46 138 134 217 164 76 322 113 231 243 277 275 283 286 275 275 278
129 128 135 142 147 153 152 148 147 138 132 134 129 132 137 132 131 135 137 142 143 143 143 145 146 144 144 143 136 121 116 123 103 112 142 148 146 143 149 160 150 149 158 162 170 170 140 156 164 163 171 172 171 175 157 172 184 187 183 183 187 183 168 149 131 197 251 244 250 230 232 244 240 233 262 256 244 240 241 243 251 155 82 275 273 290 299
144 151 152 152 148 144 144 138 137 136 139 137 134 138 141 145 139 141 149 150 150 151 149 145 142 146 147 145 142 144 140 152 147 147 154 156 161 159 160 163 168 173 168 180 183 191 183 193 191 179 189 209 203 197 188 189 194 199 211 213 200 221 197 204 228 226 228 238 244 244 246 247 239 240 241 246 238 237 240 239 242 241 232 242 252 285 294
135 120 111 109 107 107 102 102 114 122 122 129 134 141 144 137 139 149 153 161 160 157 153 150 152 157 155 153 155 152 153 156 157 155 162 165 173 179 170 184 189 185 193 193 178 186 200 196 199 207 220 221 215 212 204 221 230 226 219 228 231 234 242 252 247 252 246 234 239 248 245 248 250 246 246 251 249 249 245 246 245 244 239 244 246 245 266